Tracking 25612 objects as of 19-May-2022
HD Live streaming from Space Station
objects crossing your sky now

CICERO 8

Track CICERO 8 now!
10-day predictions


NORAD ID: 43737
Int'l Code: 2018-096U
Perigee: 445.9 km
Apogee: 471.4 km
Inclination: 97.4 °
Period: 93.6 minutes
Semi major axis: 6829 km
RCS: Unknown
Launch date: November 29, 2018
Source: United States (US)
Launch site: SRIHARIKOTA (SRI)
aabbcc
Your satellite tracking list
Your tracking list is empty




NASA's NSSDC Master Catalog

Two Line Element Set (TLE):
1 43737U 18096U   22138.18356573  .00028712  00000-0  76005-3 0  9993
2 43737  97.3589 222.8356 0018667 153.5788 206.6413 15.38157741193636
Source of the keplerian elements: AFSPC